Weather reports worldwide

Advertisment
St. James's Park, United Kingdom (3770): temperature & dewpoint: 21.06.2017 06:00:00 - 27.06.2017 06:00:00 (BST)St. James's Park, United Kingdom (3770): temperature 5cm: 21.06.2017 06:00:00 - 27.06.2017 06:00:00 (BST)St. James's Park, United Kingdom (3770): temperature -20cm & temperature -100cm: 21.06.2017 06:00:00 - 27.06.2017 06:00:00 (BST)St. James's Park, United Kingdom (3770): wind speed: 21.06.2017 06:00:00 - 27.06.2017 06:00:00 (BST)St. James's Park, United Kingdom (3770): wind direction: 21.06.2017 06:00:00 - 27.06.2017 06:00:00 (BST)St. James's Park, United Kingdom (3770): visibility: 21.06.2017 06:00:00 - 27.06.2017 06:00:00 (BST)St. James's Park, United Kingdom (3770): precipitation: 21.06.2017 06:00:00 - 27.06.2017 06:00:00 (BST)
Date & Time tt [°C] td [°C] tt 5cm [°C] tt -20cm [°C] tt -100cm [°C] ff [km/h] ff [kn] dd vv [km] rr [mm]
27.06.2017 06:00:00 16,9 8,8 - - - - - - - 0,0
27.06.2017 05:00:00 16,9 9,4 - - - - - - - 0,0
27.06.2017 04:00:00 16,5 9,2 - - - - - - - 0,0
27.06.2017 03:00:00 16,0 9,4 - - - - - - - 0,0
27.06.2017 02:00:00 16,1 9,2 - - - - - - - 0,0
27.06.2017 01:00:00 15,9 9,5 - - - - - - - 0,0
27.06.2017 00:00:00 16,3 10,2 - - - - - - - 0,0
26.06.2017 23:00:00 17,1 8,8 - - - - - - - 0,0
26.06.2017 22:00:00 18,1 9,1 - - - - - - - 0,0
26.06.2017 21:00:00 19,9 7,8 - - - - - - - 0,0
26.06.2017 20:00:00 21,3 9,1 - - - - - - - 0,0
26.06.2017 19:00:00 22,6 8,3 - - - - - - - 0,0
26.06.2017 18:00:00 23,4 7,9 - - - - - - - 0,0
26.06.2017 17:00:00 23,3 7,1 - - - - - - - 0,0
26.06.2017 16:00:00 23,3 6,5 - - - - - - - 0,0
26.06.2017 15:00:00 22,5 5,9 - - - - - - - 0,0
26.06.2017 14:00:00 22,7 6,5 - - - - - - - 0,0
26.06.2017 13:00:00 21,2 5,2 - - - - - - - 0,0
26.06.2017 12:00:00 21,1 6,7 - - - - - - - 0,0
26.06.2017 11:00:00 19,7 5,8 - - - - - - - 0,0
26.06.2017 10:00:00 18,4 6,2 - 19,4 18,0 57 31 N 1,1 0,0
26.06.2017 09:00:00 16,3 5,6 - - - - - - - 0,0
26.06.2017 08:00:00 15,7 7,1 - - - - - - - 0,0
26.06.2017 07:00:00 13,8 7,2 - - - - - - - 0,0
26.06.2017 06:00:00 14,1 6,7 - - - - - - - 0,0
26.06.2017 05:00:00 14,4 6,6 - - - - - - - 0,0
26.06.2017 04:00:00 14,7 6,9 - - - - - - - 0,0
26.06.2017 03:00:00 15,0 8,1 - - - - - - - 0,0
26.06.2017 02:00:00 15,5 8,5 - - - - - - - 0,0
26.06.2017 01:00:00 16,4 10,8 - - - - - - - 0,0
26.06.2017 00:00:00 17,2 11,4 - - - - - - - 0,0
25.06.2017 23:00:00 18,0 12,3 - - - - - - - 0,0
25.06.2017 22:00:00 18,1 11,9 - - - - - - - 0,0
25.06.2017 21:00:00 19,0 11,9 - - - - - - - 0,0
25.06.2017 20:00:00 19,8 11,8 - - - - - - - 0,0
25.06.2017 19:00:00 21,1 11,3 - - - - - - - 0,0
25.06.2017 18:00:00 22,2 11,5 - - - - - - - 0,0
25.06.2017 17:00:00 21,8 12,5 - - - - - - - 0,0
25.06.2017 16:00:00 21,6 13,8 - - - - - - - 0,0
25.06.2017 15:00:00 21,6 13,1 - - - - - - - 0,0
25.06.2017 14:00:00 21,0 13,2 - - - - - - - 0,0
25.06.2017 13:00:00 20,2 13,4 - - - - - - - 0,0
25.06.2017 12:00:00 19,1 13,2 - - - - - - - 0,0
25.06.2017 11:00:00 18,2 12,5 - - - - - - - 0,0
25.06.2017 10:00:00 17,9 12,2 - 19,9 18,2 89 48 N 4,2 0,0
25.06.2017 09:00:00 17,0 12,2 - - - - - - - 0,0
25.06.2017 08:00:00 16,2 12,1 - - - - - - - 0,0
25.06.2017 07:00:00 15,7 12,2 - - - - - - - 0,0
25.06.2017 06:00:00 15,4 12,5 - - - - - - - 0,0
25.06.2017 05:00:00 15,4 12,1 - - - - - - - 0,0
25.06.2017 04:00:00 15,6 12,4 - - - - - - - 0,0
25.06.2017 03:00:00 15,7 12,3 - - - - - - - 0,0
25.06.2017 02:00:00 15,8 11,8 - - - - - - - 0,0
25.06.2017 01:00:00 16,3 12,4 - - - - - - - 0,0
25.06.2017 00:00:00 17,2 13,2 - - - - - - - 0,0
24.06.2017 23:00:00 17,8 15,7 - - - - - - - 0,0
24.06.2017 22:00:00 18,1 16,3 - - - - - - 0,3 0,0
24.06.2017 21:00:00 18,4 16,7 - - - - - - - 0,2
24.06.2017 20:00:00 20,2 15,8 - - - - - - - 0,0
24.06.2017 19:00:00 20,5 16,4 - - - - - - - 0,0
24.06.2017 18:00:00 21,3 15,3 - - - - - - - 0,0
24.06.2017 17:00:00 22,2 16,0 - - - - - - - 0,0
24.06.2017 16:00:00 22,0 15,5 - - - - - - - 0,0
24.06.2017 15:00:00 21,8 15,1 - - - - - - - 0,0
24.06.2017 14:00:00 21,1 15,0 - - - - - - - 0,0
24.06.2017 13:00:00 22,5 15,6 - - - - - - - 0,0
24.06.2017 12:00:00 21,7 14,8 - - - - - - - 0,0
24.06.2017 11:00:00 20,2 14,6 - - - - - - - 0,0
24.06.2017 10:00:00 18,3 15,0 - 20,5 18,0 - - - - 0,0
24.06.2017 09:00:00 17,9 14,8 - - - - - - - 0,0
24.06.2017 08:00:00 17,9 14,2 - - - - - - - 0,0
24.06.2017 07:00:00 17,5 13,8 - - - - - - - 0,0
24.06.2017 06:00:00 17,4 13,8 - - - - - - - 0,0
24.06.2017 05:00:00 17,4 13,7 - - - - - - - 0,0
24.06.2017 04:00:00 17,4 13,6 - - - - - - - 0,0
24.06.2017 03:00:00 17,2 13,4 - - - - - - - 0,0
24.06.2017 02:00:00 17,3 13,2 - - - - - - - 0,0
24.06.2017 01:00:00 17,4 13,5 - - - - - - - 0,0
24.06.2017 00:00:00 17,9 13,5 - - - - - - - 0,0
23.06.2017 23:00:00 18,6 13,8 - - - - - - - 0,0
23.06.2017 22:00:00 19,3 14,1 - - - - - - - 0,0
23.06.2017 21:00:00 20,0 13,2 - - - - - - - 0,0
23.06.2017 20:00:00 20,7 13,1 - - - - - - - 0,0
23.06.2017 19:00:00 21,7 12,7 - - - - - - - 0,0
23.06.2017 18:00:00 21,8 12,1 - - - - - - - 0,0
23.06.2017 17:00:00 22,8 11,9 - - - - - - - 0,0
23.06.2017 16:00:00 23,2 12,4 - - - - - - - 0,0
23.06.2017 15:00:00 23,3 12,1 - - - - - - - 0,0
23.06.2017 14:00:00 23,6 11,9 - - - - - - - 0,0
23.06.2017 13:00:00 22,0 11,1 - - - - - - - 0,0
23.06.2017 12:00:00 21,8 11,6 - - - - - - - 0,0
23.06.2017 11:00:00 20,6 10,9 - - - - - - - 0,0
23.06.2017 10:00:00 18,8 11,3 - 20,5 18,0 - - - 0,3 0,0
23.06.2017 09:00:00 16,9 10,8 - - - - - - - 0,0
23.06.2017 08:00:00 16,3 10,8 - - - - - - - 0,0
23.06.2017 07:00:00 14,8 11,0 - - - - - - - 0,0
23.06.2017 06:00:00 13,9 10,9 - - - - - - - 0,0
23.06.2017 05:00:00 14,1 11,3 - - - - - - - 0,0
23.06.2017 04:00:00 14,4 11,3 - - - - - - - 0,0
23.06.2017 03:00:00 15,3 11,4 - - - - - - - 0,0
23.06.2017 02:00:00 16,5 12,7 - - - - - - - 0,0
23.06.2017 01:00:00 17,6 13,7 - - - - - - - 0,0
23.06.2017 00:00:00 18,5 14,3 - - - - - - - 0,0
22.06.2017 23:00:00 19,5 14,4 - - - - - - - 0,0
22.06.2017 22:00:00 20,1 14,2 - - - - - - 0,3 0,0
22.06.2017 21:00:00 21,0 14,1 - - - - - - - 0,0
22.06.2017 20:00:00 22,1 14,1 - - - - - - - 0,0
22.06.2017 19:00:00 22,2 14,5 - - - - - - - 0,0
22.06.2017 18:00:00 22,6 14,8 - - - - - - - 0,0
22.06.2017 17:00:00 22,4 14,8 - - - - - - - 0,0
22.06.2017 16:00:00 22,5 14,2 - - - - - - - 0,0
22.06.2017 15:00:00 23,3 14,6 - - - - - - - 0,0
22.06.2017 14:00:00 22,9 13,9 - - - - - - - 0,0
22.06.2017 13:00:00 23,3 14,8 - - - - - - - 0,0
22.06.2017 12:00:00 22,4 14,6 - - - - - - - 0,0
22.06.2017 11:00:00 21,1 15,3 - - - - - - - 0,0
22.06.2017 10:00:00 20,3 16,1 - 21,5 17,7 169 91 N 55 0,0
22.06.2017 09:00:00 19,9 16,1 - - - - - - - 0,0
22.06.2017 08:00:00 19,6 15,7 - - - - - - - 0,0
22.06.2017 07:00:00 19,4 15,4 - - - - - - - 0,0
22.06.2017 06:00:00 19,9 15,4 - - - - - - - 0,0
22.06.2017 05:00:00 20,2 15,6 - - - - - - - 0,0
22.06.2017 04:00:00 21,1 15,9 - - - - - - - 0,0
22.06.2017 03:00:00 21,7 17,1 - - - - - - - 0,0
22.06.2017 02:00:00 22,7 17,4 - - - - - - - 0,0
22.06.2017 01:00:00 23,2 17,5 - - - - - - - 0,0
22.06.2017 00:00:00 24,4 17,7 - - - - - - - 0,0
21.06.2017 23:00:00 25,6 18,2 - - - - - - - 0,0
21.06.2017 22:00:00 26,6 18,5 - - - - - - 0,3 0,0
21.06.2017 21:00:00 28,4 18,1 - - - - - - - 0,0
21.06.2017 20:00:00 30,2 18,0 - - - - - - - 0,0
21.06.2017 19:00:00 31,6 17,1 - - - - - - - 0,0
21.06.2017 18:00:00 32,6 16,2 - - - - - - - 0,0
21.06.2017 17:00:00 31,2 18,1 - - - - - - - 0,0
21.06.2017 16:00:00 31,9 18,4 - - - - - - - 0,0
21.06.2017 15:00:00 31,4 19,5 - - - - - - - 0,0
21.06.2017 14:00:00 29,4 18,7 - - - - - - - 0,0
21.06.2017 13:00:00 28,0 18,4 - - - - - - - 0,0
21.06.2017 12:00:00 26,3 17,4 - - - - - - - 0,0
21.06.2017 11:00:00 25,0 17,4 - - - - - - - 0,0
21.06.2017 10:00:00 23,4 17,3 23,4 20,9 17,7 119 64 N 4,7 0,0
21.06.2017 09:00:00 21,5 17,0 - - - - - - - 0,0
21.06.2017 08:00:00 19,6 16,2 - - - - - - - 0,0
21.06.2017 07:00:00 18,6 15,8 - - - - - - - 0,0
21.06.2017 06:00:00 17,4 15,1 - - - - - - - 0,0

tt = temperature
td = dewpoint
tt 5cm = temperature 5cm
tt -20cm = temperature -20cm
tt -100cm = temperature -100cm
ff = wind speed
dd = wind direction
vv = visibility
rr = precipitation

Next stations